sat.trackr.live / text

‹ back to catalog

STARLINK-36717

NORAD 67743 · 2026-026Y

PAYLOAD ACTIVE UNKNOWN

§ Identity

Operator
Country
US
Launch date
2026-02-11
Launch site
AFWTR
Launch vehicle
Mass (kg)
RCS (m²)

Purposes: comms

External: N2YO · Heavens-Above · Gunter

§ Orbital elements

Epoch: 2026-05-25T02:54:31.953888Z

Period
93.91 min
Inclination
97.2851°
Eccentricity
0.0000645
Mean motion
15.33461026 rev/d
Perigee alt
465.1 km
Apogee alt
465.9 km
Semi-major
6,843.6 km
B*
4.5255e-4
RAAN
198.7134°
Arg perigee
111.5286°
Mean anomaly
248.6026°
Rev number
1,584

§ Raw data

STARLINK-367171 67743U 26026Y   26145.12120317  .00014570  00000+0  45255-3 0  99982 67743  97.2851 198.7134 0000645 111.5286 248.6026 15.33461026 15840

JSON: /api/v1/satellites/67743 · /tle

For live sub-satellite position, see the globe view (requires WebGL).

§ Visibility from observer

Set your observer location to see the next 7 days of passes ≥ 10°. The values pass through the URL so the page stays shareable.

No JS? Fill the form by hand. The geolocation button needs JavaScript.